Hourly Data Report for July 02, 2021

VINELAND STATION RCS
ONTARIO
Current Station Operator: ECCC - MSC

43°11'00.000" N
79°24'00.000" W
79.20 m
6139148
71171
XVN

Download Data

Hourly Data (July 2021)
Hourly Data Report for July 2, 2021
TIME
LST
Temp Definition
°C
Dew Point Definition
°C
Rel Hum Definition
%
Precip. Amount Definition
mm

Wind Dir Definition
10's deg

Wind Spd Definition
km/h
Visibility Definition
km
Stn Press Definition
kPa
Hmdx Definition


Wind Chill Definition


Weather Definition


00:00 17.9 15.1 83 0.0 35 12   100.13     LegendNANA
01:00 17.8 15.5 86 0.0 36 11   100.12     LegendNANA
02:00 17.6 13.9 79 0.0 2 11   100.05     LegendNANA
03:00 16.9 13.9 83 0.0 35 9   100.06     LegendNANA
04:00 16.6 14.3 86 0.0 36 12   100.06     LegendNANA
05:00 16.9 14.7 87 0.0 34 14   100.10     LegendNANA
06:00 17.1 15.0 87 0.0 34 14   100.13     LegendNANA
07:00 17.5 14.9 85 0.0 35 16   100.14     LegendNANA
08:00 18.8 15.7 82 0.0 35 15   100.17     LegendNANA
09:00 19.2 15.5 79 0.0 36 14   100.17     LegendNANA
10:00 20.0 15.8 77 0.0 36 15   100.17     LegendNANA
11:00 20.7 15.6 72 0.0 1 10   100.19 25   LegendNANA
12:00 20.8 15.3 71 0.0 34 10   100.14 25   LegendNANA
13:00 22.0 14.9 64 0.0 34 8   100.10 26   LegendNANA
14:00 21.3 13.6 62 0.0 35 8   100.08     LegendNANA
15:00 22.3 15.5 65 0.0 36 7   100.10 27   LegendNANA
16:00 20.2 15.2 73 0.0 7 18   100.15     LegendNANA
17:00 20.0 15.7 76 0.0 5 8   100.21     LegendNANA
18:00 18.7 14.7 78 0.0 32 12   100.20     LegendNANA
19:00 18.5 14.3 77 0.0 28 5   100.21     LegendNANA
20:00 17.4 15.3 87 0.0 30 12   100.20     LegendNANA
21:00 17.1 15.5 90 0.0 27 6   100.25     LegendNANA
22:00 16.8 15.0 89 0.0 27 9   100.22     LegendNANA
23:00 16.6 14.6 88 0.0 29 9   100.18     LegendNANA

Notes on Data Quality.

Legend

  • E = Estimated
  • M = Missing
  • NA = Not Available*
  • [empty] = Indicates an unobserved value
Date modified: